Flag for Germany Past Weather in Pfaffenhofen an der Ilm, Bavaria, Germany — Yesterday and Last 2 Weeks

Now
70 °F

Mild.


Feels Like: 70 °F
Forecast: 63 / 78 °F
Wind: 6 mph from West

Location: Ingolstadt Airport

Current Time: Jul 23, 2016 at 11:25:47 PM

Latest Report: Jul 23, 2016 at 10:20 PM


Visibility: 3 mi

Pressure: 30.07 "Hg

Humidity: 83%

Dew Point: 64 °F

Location of Pfaffenhofen an der IlmLocation

Past Weather in Pfaffenhofen an der Ilm — Graph

°F

Pfaffenhofen an der Ilm Temperature Yesterday

Maximum temperature yesterday: 81 °F (at 4:20 PM)
Minimum temperature yesterday: 59 °F (at 5:20 AM)
Average temperature yesterday: 69 °F

High & Low Weather Summary for the Past Weeks

 TemperatureHumidityPressure
High88 °F (Jul 10, 4:20 PM)100% (Jul 12, 3:20 AM)30.33 "Hg (Jul 12, 3:20 AM)
Low50 °F (Jul 15, 5:20 AM)32% (Jul 19, 3:20 PM)29.86 "Hg (Jul 11, 4:20 PM)
Average68 °F72%30.08 "Hg
* Reported Jul 8 9:20 PM — Jul 23 9:20 PM, Pfaffenhofen an der Ilm, Weather by CustomWeather, © 2016

Note: Actual official high and low records may vary slightly from our data, if they occured in-between our weather recording intervals... More about our weather records

Advertising

Pfaffenhofen an der Ilm Weather History for the Previous 24 Hours

Scroll right to see more
 ConditionsComfort  
Time TempWeatherWind HumidityBarometerVisibility
9:20 PM
Sat, Jul 23
72 °FMild.1 mph78%30.04 "Hg3 mi
8:20 PM73 °FMild.3 mph69%30.04 "Hg3 mi
7:20 PM75 °FMild.6 mph65%30.04 "Hg3 mi
6:20 PM75 °FMild.9 mph69%30.04 "Hg3 mi
5:20 PM77 °FWarm.6 mph65%30.04 "Hg3 mi
4:20 PM77 °FWarm.7 mph65%30.04 "Hg3 mi
3:20 PM75 °FMild.9 mph69%30.04 "Hg3 mi
2:20 PM77 °FWarm.9 mph65%30.04 "Hg3 mi
1:20 PM75 °FMild.6 mph74%30.04 "Hg3 mi
12:20 PM75 °FBroken clouds.3 mph74%30.04 "HgN/A
11:20 AM72 °FPartly sunny.2 mph78%30.04 "HgN/A
10:20 AM70 °FPartly sunny.5 mph83%30.04 "HgN/A
10:00 AM70 °FPartly sunny.5 mph83%30.04 "HgN/A
9:20 AM70 °FMild.3 mph83%30.04 "Hg3 mi
8:20 AM66 °FMild.6 mph94%30.04 "Hg3 mi
7:20 AM64 °FMild.2 mph94%30.04 "Hg3 mi
6:20 AM63 °FMild.3 mph94%30.01 "Hg3 mi
5:20 AM63 °FMild.2 mph94%30.01 "Hg3 mi
4:20 AM64 °FMild.3 mph88%30.01 "Hg3 mi
3:20 AM64 °FMild.5 mph88%30.01 "Hg3 mi
2:20 AM66 °FMild.2 mph83%30.01 "Hg3 mi
1:20 AM68 °FMild.3 mph78%30.01 "Hg3 mi
12:20 AM68 °FMild.5 mph78%30.01 "Hg3 mi
11:20 PM
Fri, Jul 22
70 °FMild.3 mph73%30.01 "Hg3 mi
Weather by CustomWeather, © 2016

See weather overviewHow to use our weather pages